Temp
8 8 8 8 8 8 8 8 7 7 7 7 7 7 7 7 7 7 8 7 7 7 7 8 7 7 7 8 8 8 8 10 12 10 11 17 20 21 21 21 21 20 19 19 19 19 18 18 19 18 20 20 20 20 20 21 21 21 22 21 21 21 22 23 24 24 24 25 26 25 23 24 26 25 24 25 24 23 22 22 22 22 22 22 21 20 19 19
8 8 8 7 7 7 8 7 7 7 7 7 7 7 7 7 7 7 7 7 8 7 7 7 8 7 7 8 8 7 9 10 9 10 15 20 21 21 22 21 21 20 19 19 19 19 19 19 18 19 20 20 20 20 21 21 21 21 21 21 22 22 22 23 23 23 23 25 25 24 23 23 25 25 24 25 24 24 24 22 21 21 20 20 20 20 20 20
8 7 7 7 7 7 7 7 7 7 7 7 7 7 7 7 7 7 7 7 7 7 7 7 8 7 7 8 7 8 9 9 12 16 20 22 22 22 21 20 20 20 19 20 20 20 21 19 18 19 20 20 20 20 20 21 21 21 20 21 22 22 22 22 22 23 23 24 24 24 24 23 25 25 25 25 24 25 25 24 23 22 20 20 20 20 20 20
7 7 7 7 7 7 7 7 7 7 7 7 7 7 7 7 7 7 7 7 7 7 7 7 7 7 7 7 8 9 9 11 18 20 20 20 20 21 21 20 19 19 20 20 20 21 21 19 19 20 20 20 19 19 21 21 21 21 21 22 23 21 22 23 23 23 23 22 23 24 24 25 25 23 24 26 26 26 26 25 25 22 20 19 20 20 20 20
7 7 7 7 7 7 7 7 7 7 7 7 7 7 7 7 7 7 7 7 7 7 7 7 7 7 7 7 9 10 10 16 21 19 19 19 20 20 21 21 19 19 19 19 20 20 20 19 19 20 20 20 19 20 21 21 21 21 21 22 22 21 22 24 23 23 22 22 23 23 25 25 25 24 24 26 28 28 27 26 24 22 20 20 20 20 20 20
7 7 7 7 7 7 7 7 7 7 7 7 7 7 7 7 7 7 7 7 7 7 7 7 7 7 7 8 9 10 13 20 20 19 19 20 19 20 21 21 19 18 19 19 19 19 19 19 20 20 20 20 20 21 21 20 21 22 22 21 22 22 22 24 23 23 22 22 23 23 24 23 25 26 23 24 28 27 25 23 23 22 21 21 21 20 20 19
7 6 6 7 7 7 7 7 7 7 7 7 7 7 7 7 7 7 7 7 7 7 7 7 7 7 7 8 10 11 13 18 19 19 20 20 20 20 20 20 18 18 18 19 19 19 19 19 20 20 20 20 20 21 21 20 21 22 22 21 22 22 22 23 23 23 22 22 23 23 23 23 25 26 23 25 27 24 22 21 22 23 22 21 20 20 20 19
7 6 6 6 6 7 7 7 7 7 7 7 7 7 7 6 7 7 7 7 6 7 7 7 7 7 7 8 10 12 13 16 19 20 20 20 20 19 20 19 17 17 18 19 19 19 19 19 20 19 20 21 20 21 20 21 21 21 22 22 22 23 23 23 23 23 22 22 22 22 23 23 24 25 25 27 26 21 21 21 22 22 21 21 20 20 20 20
6 6 6 6 6 7 6 7 7 7 7 7 7 7 7 6 6 7 7 6 6 7 7 7 7 7 7 8 10 13 15 17 19 19 19 19 19 19 19 18 17 17 18 19 19 19 19 20 20 20 21 21 20 21 20 21 22 21 22 22 23 23 23 23 23 24 23 22 22 23 24 24 23 23 26 26 22 20 21 22 22 21 20 20 20 20 20 20
6 6 6 6 6 6 6 6 6 7 7 7 7 7 7 6 6 6 6 6 6 6 7 7 7 7 7 8 10 14 17 18 18 19 19 18 18 18 18 18 17 17 18 18 18 19 20 20 20 20 21 20 20 20 20 22 22 22 22 22 23 23 23 22 24 24 22 22 23 24 25 24 22 24 27 24 21 20 21 21 21 21 20 20 20 20 20 20
6 6 6 6 6 6 6 6 6 6 7 7 7 6 7 6 6 6 6 6 6 6 7 6 7 7 7 8 10 15 18 18 18 18 18 18 17 17 17 18 17 17 18 18 18 20 20 20 20 20 21 21 20 20 21 22 22 22 22 23 22 22 22 22 24 23 23 24 23 24 25 25 24 25 27 24 21 21 21 20 21 21 21 20 20 20 20 20
6 6 6 6 6 6 6 6 6 6 7 7 7 6 6 6 6 6 6 6 6 6 6 6 7 7 7 7 9 15 18 17 18 18 17 17 17 16 16 17 17 18 19 18 19 19 20 20 20 21 21 21 21 21 21 22 22 22 22 23 23 23 24 24 24 22 23 25 23 24 26 26 26 26 25 22 20 21 20 20 21 21 21 20 20 20 20 20
6 6 6 6 6 6 6 6 6 6 6 6 6 6 6 6 6 6 6 6 6 6 6 7 7 7 7 8 11 16 18 17 17 17 17 17 17 17 17 17 17 18 19 19 19 19 20 20 21 21 20 21 22 21 21 21 21 22 22 23 24 24 24 24 23 22 23 24 23 25 24 25 27 25 24 22 20 21 20 20 21 21 21 20 20 20 19 20
6 6 6 6 6 6 6 6 6 6 6 6 6 6 6 6 5 6 6 6 6 6 6 6 7 7 7 9 13 17 18 17 17 17 17 17 16 17 17 17 17 17 18 19 19 19 20 19 20 21 20 21 21 21 21 21 21 22 22 22 22 22 23 24 22 22 25 23 22 25 23 24 27 24 22 21 20 21 21 21 20 20 21 20 20 20 19 19
6 6 6 6 6 6 6 6 6 6 6 6 6 6 6 5 5 6 6 6 6 6 6 6 7 7 7 9 14 16 16 16 17 18 18 17 17 17 17 17 17 17 18 19 19 19 19 19 20 21 20 20 21 21 21 21 21 21 22 21 21 21 23 24 22 21 25 23 22 25 24 24 25 23 21 20 20 21 22 21 20 20 21 20 20 19 19 19
6 6 6 6 6 6 6 6 6 6 6 6 6 6 5 5 6 5 5 6 6 6 6 7 8 7 9 12 15 16 15 15 17 19 18 18 18 18 17 17 17 17 17 18 19 19 18 19 20 20 20 21 21 22 21 21 21 20 21 21 21 21 22 23 23 21 23 24 24 24 24 25 24 22 20 19 20 21 21 21 20 20 20 20 20 19 19 19
6 6 6 6 6 6 6 6 6 6 6 6 6 5 5 6 6 6 6 6 6 6 6 8 8 7 10 15 16 16 16 16 17 18 18 18 18 18 18 17 17 16 17 18 18 18 18 19 19 19 20 20 20 21 21 20 20 20 21 21 20 21 21 22 24 23 22 24 25 24 25 24 22 21 20 18 19 20 21 21 21 21 20 20 19 19 19 19
6 6 5 6 6 6 6 6 6 6 5 5 5 5 6 6 6 6 6 6 7 7 7 7 8 9 13 15 15 17 17 17 18 18 17 17 17 18 18 17 17 17 17 18 18 18 18 18 19 19 20 19 20 21 21 20 21 21 21 21 20 20 21 22 23 23 23 25 25 25 24 22 20 20 19 18 18 19 19 19 20 21 21 20 19 19 19 19
6 6 5 5 5 5 6 5 5 5 5 5 5 5 6 6 6 6 6 6 7 9 10 9 9 13 16 15 15 16 17 17 18 17 17 16 17 18 18 17 17 18 18 18 18 18 18 18 18 19 19 19 20 21 21 21 22 21 21 22 21 21 21 22 23 22 22 24 24 23 22 20 19 19 18 18 17 18 18 18 19 19 20 20 20 19 19 19
6 6 5 5 6 5 5 5 5 5 5 5 5 5 7 7 8 8 7 6 8 10 11 10 10 13 15 15 15 16 17 18 17 17 17 16 17 18 18 18 18 18 18 18 18 18 19 19 18 19 19 19 20 21 22 21 22 21 21 21 21 21 22 22 23 21 21 22 21 20 20 18 18 18 18 18 18 17 17 17 18 18 19 20 20 20 20 19
6 6 5 5 5 5 5 5 5 5 5 5 5 5 7 8 10 9 8 8 9 9 9 10 11 12 14 14 14 15 16 17 17 17 17 17 18 19 19 18 18 18 18 18 18 18 19 19 19 20 20 20 19 19 20 20 21 21 21 21 20 21 22 22 22 21 21 22 19 19 19 18 18 18 18 18 18 17 17 17 17 17 18 19 20 20 19 18
5 5 5 5 5 5 5 5 5 5 5 5 4 5 6 7 9 8 8 9 10 10 10 10 10 11 12 13 13 14 15 15 17 18 17 17 19 19 19 18 18 18 17 17 18 18 18 18 19 19 18 18 18 18 20 20 20 21 21 21 21 21 21 21 21 20 21 22 19 19 19 18 17 18 18 18 17 17 17 17 17 17 17 18 19 18 17 17
5 5 5 5 5 5 5 5 5 5 5 5 4 5 6 8 8 7 8 9 10 11 10 10 11 11 11 12 13 14 14 14 16 17 17 18 18 19 19 18 18 18 17 18 19 18 18 19 19 18 17 18 17 17 19 20 20 20 21 21 21 20 21 22 21 20 20 20 19 20 20 18 18 18 18 19 18 18 18 18 18 17 17 17 17 17 16 17
5 5 5 5 5 5 5 5 5 5 5 5 4 6 7 8 7 7 8 9 10 11 11 11 11 11 12 13 14 14 14 15 15 17 18 18 18 18 19 19 18 18 18 18 19 19 19 19 19 17 18 19 18 17 19 20 19 19 20 21 21 21 21 22 21 20 20 19 20 21 21 19 18 18 18 19 19 19 19 19 19 18 17 17 17 16 16 16
5 5 5 5 5 5 5 5 5 5 5 5 5 6 7 7 7 7 8 10 11 12 12 12 12 13 14 14 15 15 15 15 16 17 18 19 19 19 19 19 19 18 18 18 18 20 20 19 18 17 18 19 18 18 19 20 20 19 19 21 22 22 22 21 21 21 21 20 20 20 21 19 18 17 17 18 19 19 19 18 18 18 18 17 17 17 17 17
5 5 5 5 5 5 5 5 5 4 5 5 6 7 6 7 7 6 8 11 12 13 13 14 14 15 16 15 15 16 16 16 17 18 18 19 20 20 19 18 19 18 17 18 19 19 19 17 18 19 18 18 19 19 19 20 20 19 20 21 21 22 22 22 22 21 21 20 19 19 20 20 18 18 17 18 19 18 18 18 17 18 18 18 18 17 17 16
5 5 5 5 5 5 5 5 5 4 5 6 6 6 7 7 6 6 9 11 13 14 14 13 14 16 17 15 16 16 16 17 18 17 18 20 20 20 19 18 19 18 17 18 18 19 18 17 18 18 18 19 19 19 18 19 20 20 20 20 20 21 22 21 22 21 21 20 19 19 20 20 19 18 17 18 19 18 18 17 17 17 16 16 17 16 16 15
5 5 5 5 5 5 5 5 5 5 6 6 6 6 7 7 6 7 10 12 14 16 15 14 15 17 16 16 17 18 18 18 18 18 19 20 20 20 20 19 19 18 18 18 19 18 18 18 18 18 19 19 19 20 19 19 21 21 19 19 20 21 21 21 22 21 20 20 20 20 20 20 19 18 17 18 19 17 17 17 16 16 15 15 15 15 15 14
5 5 5 5 5 5 5 4 4 5 6 6 6 6 7 6 6 9 11 13 15 17 17 16 16 16 15 15 17 18 18 19 19 18 19 19 20 20 19 19 20 19 18 19 20 18 18 19 19 19 19 19 20 20 19 20 21 19 18 18 19 19 19 20 21 21 20 20 21 19 19 20 18 17 18 18 18 17 17 17 16 15 15 14 14 14 14 13
4 4 4 5 4 5 5 4 4 6 6 5 5 6 6 6 9 11 11 13 16 16 16 16 16 16 15 15 16 17 18 18 18 18 18 19 19 20 19 18 19 19 18 19 20 19 18 19 19 20 20 20 20 18 18 20 20 18 18 19 20 19 19 19 20 20 20 20 20 17 17 19 19 17 17 17 17 17 17 16 15 15 14 14 13 13 13 12
4 4 4 4 5 5 4 4 5 5 5 5 5 6 6 8 11 11 11 14 16 15 16 16 15 15 15 15 16 16 17 18 18 18 18 19 19 19 19 18 19 19 18 19 19 18 18 18 19 20 20 20 19 18 17 19 19 19 20 20 20 20 20 20 20 20 20 20 19 16 16 19 20 17 17 17 17 17 17 16 15 14 14 13 13 12 12 12
4 4 4 4 4 4 4 5 5 5 4 5 5 6 8 10 11 11 12 15 15 14 15 16 16 16 15 16 16 16 17 18 18 19 19 19 19 19 19 19 19 18 17 18 18 18 18 19 19 20 19 20 20 18 17 18 18 20 21 20 20 20 19 20 20 20 20 20 18 16 17 19 18 17 17 17 17 16 15 15 14 14 13 13 12 11 11 11
4 4 4 4 4 4 4 5 5 5 5 5 5 7 10 11 11 11 13 14 13 13 14 15 16 16 16 16 16 17 18 18 18 19 19 19 19 18 18 19 19 19 18 17 18 18 18 19 19 19 19 20 20 19 18 18 19 20 21 20 20 20 19 19 18 19 19 19 17 16 18 18 17 17 17 16 15 15 14 14 14 13 12 12 11 11 11 10
4 4 4 4 4 4 4 5 5 5 4 4 7 10 10 10 11 12 13 14 13 13 13 14 15 16 16 17 17 17 18 18 18 19 18 18 18 18 18 18 19 19 18 17 17 18 18 18 19 20 20 20 21 20 20 19 19 20 21 21 21 20 20 19 19 19 19 19 18 17 18 18 17 17 16 15 14 14 14 14 13 13 12 11 11 11 10 10
4 4 4 4 4 5 5 5 5 4 4 6 9 10 10 10 11 12 13 13 13 12 13 14 15 16 16 17 18 18 18 18 18 18 18 18 18 18 18 18 18 19 18 17 17 18 18 19 20 20 19 20 21 21 20 20 19 19 19 20 20 21 20 18 17 18 18 19 18 16 16 17 17 16 16 15 15 14 14 14 13 12 11 11 11 10 10 10
4 4 4 4 4 5 6 5 4 4 4 7 10 10 10 11 12 12 12 13 13 12 12 14 15 15 16 17 17 18 19 18 18 18 18 18 18 18 18 19 18 19 19 18 17 17 18 19 19 18 19 20 21 21 20 21 20 18 19 20 20 20 20 18 16 15 17 19 17 14 15 16 16 16 16 16 15 14 14 14 13 12 11 10 10 10 9 9
4 5 5 5 5 6 6 5 4 4 5 8 10 10 11 12 13 13 13 13 13 11 11 13 15 15 16 17 17 18 19 18 18 18 17 17 18 18 18 19 18 19 20 20 18 18 19 19 18 18 20 20 20 21 20 20 20 19 20 20 19 19 20 19 18 17 18 19 16 14 16 16 16 16 16 15 14 14 14 13 12 12 11 10 9 9 9 9
4 5 6 6 6 7 6 5 4 5 7 10 11 11 12 12 13 13 13 13 13 12 11 11 13 15 16 17 17 18 19 18 18 18 17 17 17 17 18 19 18 19 20 20 20 18 18 20 19 19 20 19 19 21 20 19 20 20 21 21 20 20 20 19 19 19 18 16 14 15 16 16 17 17 16 15 14 13 13 12 12 11 10 10 9 9 9 8
5 5 6 6 6 6 5 5 5 7 9 10 10 11 12 13 14 14 14 13 13 13 11 11 12 14 16 17 17 18 18 18 18 17 17 17 17 17 18 18 18 19 19 20 20 17 17 19 19 18 18 18 20 20 20 20 20 20 20 20 20 20 20 20 19 20 19 16 14 16 15 16 18 16 16 16 14 13 13 12 11 10 9 9 9 8 8 8
5 6 7 6 5 6 5 5 7 9 10 10 10 11 12 13 14 14 14 13 13 13 11 11 12 13 15 17 17 18 18 18 18 17 17 17 17 17 17 18 19 18 18 19 19 17 17 19 19 18 18 18 19 18 19 20 20 20 20 20 19 19 20 20 19 18 18 16 15 16 15 16 17 15 15 15 13 13 13 12 10 10 9 8 8 8 8 8
6 7 7 5 5 5 6 7 9 9 10 10 10 11 12 13 13 13 13 13 13 13 13 12 13 13 14 16 17 18 17 17 17 17 16 17 17 17 17 18 19 18 18 19 19 18 19 19 18 18 18 18 18 16 16 18 19 20 21 21 20 19 20 20 19 17 17 17 17 16 16 16 14 13 13 13 12 12 12 11 10 9 9 8 8 8 8 7
6 7 7 5 5 5 7 9 10 9 10 10 11 12 13 13 12 12 13 13 12 13 13 13 13 13 14 16 17 18 17 16 16 17 16 17 17 17 17 16 17 19 19 19 19 17 18 18 17 17 17 17 16 15 15 15 16 18 19 18 19 20 21 21 20 18 17 17 17 17 18 16 12 11 12 11 11 11 11 11 10 9 9 8 8 8 7 7
6 7 6 6 5 6 8 9 9 9 10 11 11 13 13 12 11 11 12 12 12 13 14 14 14 14 15 16 17 17 17 16 15 16 16 16 16 16 16 15 16 18 19 19 18 17 17 18 17 17 17 18 17 16 15 15 16 18 17 14 16 18 19 20 20 19 17 16 17 18 18 16 12 10 11 10 10 10 9 10 9 9 8 8 8 8 7 7
6 6 6 6 5 6 8 9 9 9 10 11 11 12 13 12 12 11 11 12 13 13 14 14 15 16 15 16 17 17 17 16 15 16 16 16 16 16 15 15 16 18 19 19 19 19 18 17 17 17 17 17 18 17 17 17 16 15 14 13 13 15 16 18 19 19 18 16 17 19 19 15 11 10 10 10 9 9 9 9 9 8 8 8 8 7 7 7
6 7 7 6 6 6 8 9 9 10 10 11 11 11 11 12 12 12 12 12 13 13 14 14 15 15 15 16 17 16 17 17 16 16 16 16 16 16 15 15 16 17 17 17 18 19 16 13 15 18 18 17 18 18 17 17 15 13 12 13 13 13 15 18 19 20 19 16 16 20 18 13 10 10 10 9 9 8 8 8 8 8 8 7 7 7 7 7
6 7 7 7 7 7 8 9 9 10 10 11 11 10 10 11 12 13 13 13 14 14 13 13 14 15 16 17 17 16 16 17 17 16 16 16 16 16 16 16 16 17 16 15 16 16 13 11 12 15 16 16 15 14 13 13 14 14 12 12 12 11 12 17 20 20 19 16 16 18 15 12 11 10 10 9 9 8 8 8 8 7 7 7 7 7 7 6
7 7 7 7 8 8 8 9 9 9 10 11 10 10 11 11 12 13 14 14 14 13 12 12 13 16 16 16 16 16 16 16 17 16 16 16 16 16 16 16 17 17 16 15 15 14 13 11 11 12 12 12 12 12 12 12 12 12 12 12 12 11 12 17 19 18 17 18 18 15 13 12 11 10 9 9 8 8 7 7 7 7 7 7 6 6 6 6
7 8 8 8 9 8 9 10 10 10 10 11 11 10 11 12 12 12 13 14 15 13 13 13 14 14 15 16 17 16 15 16 16 15 16 16 16 16 16 17 16 16 16 15 14 14 13 11 11 11 11 11 11 12 12 12 12 11 11 12 12 12 13 16 15 13 15 18 18 14 12 12 11 9 9 9 8 7 7 7 7 6 6 6 6 6 6 6
7 7 8 8 9 9 9 10 10 10 11 11 10 11 11 12 12 12 13 14 15 14 14 14 14 14 15 16 16 16 16 16 16 15 15 16 16 16 17 17 16 16 16 15 14 13 13 11 11 12 11 11 11 12 12 12 11 11 11 11 12 12 12 13 12 12 14 15 14 12 11 10 9 8 8 7 7 7 6 6 6 6 6 6 6 6 6 6
7 7 7 8 9 9 9 10 10 10 10 10 11 11 11 12 12 13 12 13 15 16 14 13 13 14 15 15 16 15 15 16 17 16 15 16 16 16 16 17 17 16 16 15 14 14 13 12 11 12 12 11 11 12 12 12 11 10 10 11 11 11 11 11 11 12 12 12 11 11 10 9 8 7 7 7 7 6 6 6 6 6 6 6 5 5 5 5
6 6 7 8 9 9 9 10 10 11 10 10 11 11 12 13 13 13 13 12 13 14 14 14 14 14 15 15 15 14 14 15 16 15 14 16 15 15 15 15 16 17 16 15 14 15 14 12 11 13 13 11 11 12 12 12 12 11 10 10 10 11 10 10 10 11 11 11 10 10 10 8 7 7 6 6 6 6 6 5 5 5 5 5 5 5 5 5
6 6 7 8 9 10 10 10 10 11 11 11 11 11 12 14 13 13 15 15 13 13 13 14 15 15 14 14 14 14 14 13 13 13 13 13 13 12 13 13 14 15 16 14 13 13 14 12 12 14 13 11 11 12 11 13 15 14 11 9 10 10 10 10 10 10 11 11 11 11 10 8 7 7 6 6 6 5 5 5 5 5 5 5 5 5 5 5
Height
809 809 808 808 807 807 806 806 806 805 804 804 803 803 802 801 800 799 798 797 796 795 794 793 792 791 790 789 787 786 784 781 779 779 773 766 767 771 770 771 772 773 774 775 777 778 781 783 783 783 783 784 786 786 788 788 788 791 797 804 805 805 800 793 792 791 789 786 783 782 783 783 780 777 774 772 775 778 779 780 781 780 779 780 781 783 785 788
808 808 807 807 806 806 806 805 805 804 803 803 802 801 801 800 799 799 798 797 796 794 793 792 792 790 789 788 786 785 783 780 779 774 765 763 767 767 768 770 771 772 773 774 775 776 779 782 782 783 783 785 787 787 788 788 788 792 799 803 800 797 793 788 788 788 788 787 784 783 784 784 780 778 775 777 783 780 780 784 784 785 785 784 784 786 787 788
807 807 806 806 805 805 805 804 804 803 802 802 801 800 800 799 799 798 797 796 795 793 792 791 790 789 788 787 786 784 782 781 776 767 760 762 764 763 765 767 769 771 771 773 774 775 776 779 781 782 783 786 788 788 789 788 788 791 797 800 794 791 790 787 788 787 786 786 786 785 783 783 779 777 776 778 782 780 780 783 784 788 789 788 787 787 788 789
806 806 805 805 804 804 804 803 803 802 801 801 800 800 799 798 798 797 796 795 794 793 791 790 789 788 787 786 785 783 782 779 769 760 759 761 761 761 762 763 766 769 771 773 774 775 775 778 780 782 783 787 788 788 788 787 788 790 793 794 789 790 790 785 785 785 785 787 788 786 783 781 778 778 778 777 780 781 778 775 778 784 787 787 787 787 788 788
805 805 804 804 803 803 803 802 801 801 800 800 799 799 798 797 797 796 795 794 793 792 790 789 788 787 786 785 783 782 782 776 762 757 759 759 759 761 761 761 764 767 770 772 773 775 776 778 780 782 784 787 789 788 787 785 785 789 789 788 786 789 789 782 782 784 785 787 787 787 783 780 777 778 778 776 778 778 773 771 774 778 781 783 784 786 787 788
804 804 803 803 802 802 801 801 800 800 799 799 798 798 797 796 795 795 794 793 792 791 790 788 787 787 785 783 783 781 781 771 758 757 758 758 759 760 760 760 762 766 769 771 772 774 776 778 780 783 784 786 789 786 785 784 784 787 788 787 785 786 786 781 782 783 784 786 786 785 782 780 779 778 779 778 775 772 770 771 773 775 778 780 782 785 787 788
803 803 802 802 801 801 800 800 799 798 798 797 797 796 796 795 794 794 793 792 791 790 789 788 787 786 784 783 782 782 781 767 755 758 758 757 758 758 760 760 761 765 768 769 771 773 775 778 779 781 783 785 787 784 783 784 784 787 787 786 784 783 783 781 781 781 783 784 782 781 781 782 781 778 780 777 772 771 772 772 772 774 778 780 783 784 786 787
802 802 801 801 800 800 799 798 798 797 797 796 795 795 794 794 793 792 791 791 790 789 789 787 786 785 783 783 782 782 780 764 754 758 758 757 757 757 759 759 762 764 766 767 768 770 773 776 778 780 782 782 783 783 783 784 785 787 786 784 782 781 781 780 780 780 781 782 780 780 781 781 779 778 778 775 772 774 773 772 772 775 778 781 783 784 785 787
801 800 800 799 799 799 798 796 796 796 795 795 794 794 793 792 792 791 790 789 788 788 787 787 786 785 784 783 783 781 771 758 756 758 757 756 756 756 757 758 761 764 765 767 767 769 772 774 774 775 777 779 780 781 782 784 785 783 782 781 781 780 779 780 779 777 779 780 778 779 779 778 778 778 778 775 776 776 774 774 775 776 780 782 783 784 785 786
800 799 799 798 797 797 796 795 795 794 794 793 793 792 791 791 790 789 789 788 787 787 786 787 785 785 784 783 783 777 762 756 758 757 756 756 756 756 757 757 760 763 765 766 767 767 767 769 771 771 774 778 779 780 781 781 780 778 778 780 779 778 779 780 778 776 778 777 776 777 777 777 777 778 779 777 777 777 776 778 778 779 781 783 783 784 785 786
799 798 797 797 796 795 794 794 793 793 792 791 791 791 790 789 789 788 787 787 786 786 785 785 785 785 784 783 782 771 758 757 757 756 756 756 756 757 758 758 759 761 763 765 766 766 766 768 769 771 774 776 778 780 780 776 775 776 778 779 779 779 780 779 777 777 777 775 774 775 775 775 775 776 777 777 777 777 778 780 780 780 782 783 783 785 785 787
797 797 796 795 795 794 793 792 792 791 791 790 790 789 788 788 787 787 786 785 785 785 785 784 785 784 783 785 778 764 757 758 757 756 756 756 758 759 759 760 760 761 762 764 765 766 768 768 768 771 773 773 777 781 777 773 775 776 777 779 779 778 778 776 775 777 776 774 772 772 776 776 776 776 775 777 778 777 780 781 780 781 782 783 784 785 787 788
796 795 794 794 793 792 792 791 790 790 789 788 788 787 787 785 785 785 784 784 783 783 784 783 784 783 784 781 767 757 756 757 757 756 756 757 759 760 761 761 762 763 763 763 765 767 768 768 768 770 772 772 776 777 774 773 776 777 778 779 779 780 779 774 775 778 776 775 771 772 783 781 776 777 776 778 779 778 781 782 781 781 781 783 784 786 788 789
794 793 793 792 791 791 790 789 789 788 787 787 786 785 784 783 783 782 782 782 782 783 782 782 783 783 784 774 757 754 756 755 755 753 753 756 758 760 761 762 763 764 765 766 766 768 768 769 770 770 771 772 773 774 775 777 778 778 780 782 785 787 782 773 776 778 774 775 772 773 784 782 777 780 779 780 780 778 781 782 782 782 781 782 784 787 789 790
793 792 791 790 790 789 788 788 787 786 786 785 784 783 782 781 780 780 781 780 781 781 780 782 782 782 784 771 753 752 753 752 751 748 751 754 757 759 760 762 764 764 766 767 767 768 769 769 770 772 772 771 771 775 778 780 781 782 784 789 791 789 783 776 777 778 775 775 774 775 783 782 780 783 782 781 781 781 782 783 784 783 782 783 786 789 790 791
791 790 789 789 788 787 787 786 785 785 784 783 782 781 780 778 777 777 777 778 779 780 781 782 780 782 781 764 751 750 750 750 747 746 749 751 754 757 758 761 763 765 766 767 768 768 769 770 771 772 772 772 773 776 781 784 785 785 785 790 793 788 784 781 777 777 777 775 775 777 781 783 784 786 784 784 783 783 784 784 785 785 784 786 789 791 791 792
790 789 788 787 787 786 785 784 784 783 782 781 780 779 777 775 774 773 774 776 777 778 780 779 780 783 773 754 749 749 747 747 746 746 747 748 752 755 757 761 763 765 766 767 769 769 770 772 773 773 772 775 776 775 784 791 789 789 787 789 794 791 787 785 779 777 776 776 777 777 779 786 790 790 789 789 785 784 786 786 785 784 786 789 790 792 792 792
788 787 786 786 785 784 784 783 783 782 781 780 778 777 774 772 771 771 772 774 776 779 780 779 781 778 762 749 749 747 745 746 745 745 746 747 752 754 755 759 761 764 767 768 769 770 772 773 774 775 776 779 778 776 784 789 786 787 787 786 793 793 790 787 782 779 776 775 777 778 782 791 794 792 792 792 789 788 790 789 787 784 785 788 790 791 791 792
786 785 785 784 784 783 782 782 781 780 780 778 777 775 773 773 772 771 773 773 774 774 772 771 772 763 750 747 748 745 744 744 743 744 745 747 751 753 755 757 760 762 766 769 771 771 771 775 778 778 778 779 777 774 776 779 777 780 783 782 786 787 787 787 782 781 780 778 782 784 790 798 799 797 796 794 793 792 793 791 789 787 786 787 789 789 790 791
785 784 783 783 782 782 781 780 780 779 779 777 777 775 773 772 770 771 774 773 767 762 759 760 759 752 746 747 747 745 744 742 743 743 743 746 748 752 754 757 760 762 764 768 770 770 769 775 778 775 775 775 775 773 772 775 774 778 782 783 786 785 783 783 781 782 781 785 795 796 798 805 804 802 799 795 794 794 795 794 792 791 789 788 788 788 790 792
783 782 782 781 781 780 780 779 779 778 777 777 777 776 772 769 766 767 770 768 760 757 757 756 756 751 746 746 747 747 747 744 742 742 743 745 746 750 754 756 762 765 766 766 768 769 770 775 775 770 771 772 775 776 774 777 778 778 781 783 788 786 781 781 782 784 781 787 803 801 800 809 808 805 802 797 796 797 798 799 797 795 792 790 789 790 793 793
782 781 780 780 779 779 778 778 777 776 776 776 776 775 772 768 766 766 767 764 757 754 755 754 756 752 745 746 748 749 752 750 743 740 742 744 745 748 752 756 761 764 767 767 769 773 774 774 771 769 772 774 779 781 776 778 779 779 782 783 785 785 784 784 785 788 782 787 803 801 801 811 810 806 803 800 799 800 799 799 799 799 797 795 794 795 797 797
780 779 779 778 777 777 777 776 775 775 774 774 773 772 770 767 767 767 767 765 755 749 749 750 751 748 744 745 747 749 751 750 746 741 740 743 744 745 748 754 759 762 767 766 766 773 777 771 767 771 773 774 781 784 778 779 782 782 783 783 784 787 786 783 785 791 787 788 797 797 800 809 809 807 804 800 800 799 797 797 797 799 800 800 800 800 801 800
778 777 777 776 776 775 775 774 773 773 772 771 770 768 767 767 767 767 766 763 754 746 742 742 743 742 740 740 742 746 747 746 745 740 737 741 743 744 746 751 757 762 764 763 763 767 769 764 765 772 773 771 779 784 780 779 785 787 783 780 782 785 782 780 786 791 790 792 793 789 797 810 811 811 809 801 799 799 798 797 797 798 801 802 802 802 803 803
776 776 775 775 775 773 773 773 771 771 770 769 768 765 766 767 766 767 765 760 751 743 738 736 738 735 731 736 739 740 743 743 739 736 735 737 739 742 746 748 753 761 763 764 764 763 764 763 765 771 773 772 776 782 779 776 783 789 785 778 778 778 778 781 785 786 790 798 795 789 799 815 816 814 816 806 801 803 800 799 801 801 802 803 804 804 803 803
774 774 773 773 773 772 772 771 769 770 769 767 766 764 766 766 765 766 764 757 746 736 733 733 732 727 724 733 736 736 743 739 730 731 733 734 735 737 745 749 750 757 761 762 763 762 764 765 764 767 772 774 774 778 777 775 782 788 781 776 777 776 777 781 782 782 789 795 797 793 798 814 818 815 818 811 805 806 802 803 807 807 807 805 804 805 804 805
772 772 772 772 771 771 771 769 769 769 767 765 763 764 766 764 765 765 760 757 743 726 727 733 728 720 720 725 727 733 740 733 726 730 730 732 734 733 742 750 750 755 758 760 765 763 763 767 768 767 770 773 773 775 776 774 779 782 775 774 779 778 778 781 780 781 787 791 795 795 791 804 818 817 818 813 808 809 807 808 812 812 813 810 807 809 809 810
771 771 770 770 770 770 769 768 768 766 764 763 763 764 764 762 765 763 757 753 735 716 719 727 723 718 719 723 723 725 727 723 726 730 726 728 733 732 740 746 746 752 754 757 764 762 760 765 767 767 769 772 769 768 772 772 774 775 774 776 778 776 778 780 779 781 791 792 791 794 790 801 820 820 815 813 809 812 813 813 816 816 817 815 813 814 814 814
769 769 769 768 768 768 768 767 766 763 762 762 763 763 762 763 763 760 757 745 723 711 714 717 719 720 722 726 725 721 720 721 724 725 725 729 731 731 738 742 741 749 752 751 757 759 758 757 757 760 764 766 764 765 768 768 770 772 776 779 779 781 784 784 782 782 791 794 789 797 798 801 821 824 816 816 815 816 817 816 818 821 820 818 817 817 817 817
767 767 767 767 767 766 766 765 762 760 761 762 763 761 761 763 758 756 759 741 718 714 714 715 719 720 723 728 728 725 722 722 722 723 727 729 730 731 736 739 740 747 753 752 752 756 756 754 753 756 757 757 760 766 768 766 767 771 775 779 781 785 786 786 787 784 791 795 793 807 807 797 813 826 820 819 819 815 816 818 822 823 822 821 820 821 821 821
766 765 765 765 765 765 764 762 758 758 761 762 761 760 760 759 754 754 752 731 717 719 717 718 721 719 722 725 726 727 725 724 722 724 729 730 733 735 737 742 744 749 757 757 756 758 757 757 757 753 752 754 759 768 772 768 768 770 771 777 783 788 788 788 791 791 796 798 797 811 809 794 807 825 822 818 816 813 815 820 825 826 825 824 824 825 826 825
763 763 764 763 763 763 761 759 758 758 760 760 761 760 756 754 754 752 739 722 722 726 720 720 721 719 722 720 721 724 723 724 723 722 727 730 733 736 737 741 745 753 762 761 759 761 759 757 755 752 751 752 757 768 775 773 771 769 770 775 783 792 797 797 797 797 797 797 801 810 805 800 813 820 816 815 816 817 819 822 826 828 827 827 828 829 829 829
761 761 761 760 760 759 757 757 758 759 759 759 760 756 752 754 753 743 731 725 729 730 723 722 720 718 722 720 721 722 720 723 723 722 724 726 732 737 737 738 738 745 757 759 761 764 762 758 754 754 754 749 751 763 773 776 773 770 769 772 779 791 802 808 807 806 801 799 806 807 802 809 821 818 813 817 820 820 823 824 827 829 829 830 832 832 832 832
759 758 757 757 756 755 754 755 757 758 760 759 757 752 753 757 748 735 730 729 730 731 727 724 721 717 719 718 717 718 721 724 722 722 726 728 734 739 740 740 737 739 749 758 761 761 764 764 754 751 752 747 748 752 757 765 767 767 765 765 772 779 789 800 802 800 801 802 805 805 805 813 819 817 814 818 820 821 824 826 827 830 831 832 833 833 834 834
756 756 755 753 751 750 750 752 754 757 760 758 753 751 752 752 743 734 734 731 729 731 729 724 722 721 718 716 714 713 716 722 722 723 727 729 733 737 737 738 738 739 745 756 761 759 762 760 746 744 747 743 745 746 746 756 767 771 767 767 772 767 773 795 804 801 800 802 808 816 817 816 814 814 815 816 820 823 825 827 828 831 833 834 834 835 836 836
754 753 752 749 747 747 747 749 752 755 758 755 750 751 750 743 737 735 735 732 732 736 735 726 720 721 720 716 716 714 712 717 722 725 729 730 731 733 733 733 734 736 738 747 757 759 760 756 745 746 747 741 740 742 744 750 761 772 771 770 770 762 767 791 808 811 802 799 816 829 825 820 818 817 815 816 821 824 825 827 830 833 835 836 838 839 840 839
752 751 749 746 745 745 745 747 749 753 755 751 747 748 745 737 733 734 734 733 735 739 743 736 722 719 720 716 716 714 712 717 722 725 731 733 732 732 731 730 731 731 730 736 747 752 752 751 748 746 745 743 740 740 744 744 749 764 769 765 766 768 770 777 794 809 804 804 824 832 823 821 822 819 817 819 823 826 827 828 831 834 835 838 841 841 842 842
750 749 747 744 743 743 744 746 748 751 750 747 745 743 740 736 731 731 733 734 734 737 744 745 731 720 717 716 716 712 710 717 722 725 730 733 733 731 729 729 730 729 726 728 738 746 747 749 751 745 743 746 741 741 750 750 746 751 754 754 761 771 775 777 789 798 803 819 834 829 825 821 816 817 817 818 824 827 829 831 833 835 837 840 842 843 843 843
749 748 745 742 742 741 743 745 747 749 746 745 746 741 736 734 729 728 731 733 733 736 743 746 737 725 718 714 714 712 711 716 721 725 729 731 732 730 727 728 729 729 727 725 733 744 746 749 753 748 745 746 744 746 754 755 751 749 750 754 758 763 767 774 782 781 792 822 832 825 829 821 810 813 813 813 822 824 827 834 836 838 841 842 844 845 845 845
747 746 743 741 742 742 743 745 747 747 745 744 745 740 735 732 729 728 729 732 734 736 742 744 739 732 723 715 713 712 713 716 719 724 728 729 731 731 727 726 726 729 730 728 733 742 744 747 752 750 748 748 751 755 754 750 751 753 755 759 762 765 766 770 781 783 789 812 821 824 830 818 808 815 814 815 822 823 825 833 838 840 843 845 846 847 847 847
746 744 742 742 743 742 743 745 745 745 745 744 743 739 734 731 731 731 730 734 736 734 736 738 736 733 726 718 713 711 715 720 720 724 728 727 729 730 726 724 725 727 731 732 733 738 741 744 751 754 753 753 758 761 757 752 751 750 750 754 758 763 763 769 786 793 790 797 806 812 816 812 814 820 820 822 826 826 829 833 837 841 843 846 848 848 849 850
746 743 742 742 743 743 743 743 743 743 743 742 739 736 733 732 734 735 733 735 736 733 731 731 730 729 725 719 713 710 716 723 724 724 726 726 727 728 726 725 725 723 727 733 734 736 739 744 752 758 758 758 760 760 759 758 756 751 753 759 759 754 753 761 776 788 794 798 800 801 803 810 821 825 824 828 830 831 834 835 838 843 844 847 849 849 851 850
745 744 743 743 744 744 743 743 743 744 741 738 736 733 731 733 737 738 737 736 734 730 728 726 722 721 719 714 710 710 714 723 727 725 725 727 727 726 725 726 726 723 724 731 735 735 739 745 754 759 757 754 755 758 759 759 757 756 763 772 770 762 759 760 763 773 790 799 797 797 801 811 824 829 829 832 834 835 838 838 840 843 845 848 850 851 852 850
745 744 744 745 746 745 743 742 743 743 740 737 736 733 732 734 737 737 737 735 731 727 725 721 714 712 712 708 706 709 712 720 728 727 726 728 726 724 725 725 724 722 722 727 728 728 738 751 754 756 762 763 760 760 758 756 762 771 778 780 778 775 769 765 766 771 783 796 793 786 793 810 825 831 832 834 836 838 841 842 842 844 847 850 851 852 852 851
746 744 745 746 747 746 744 742 742 742 740 738 737 736 737 736 733 732 733 731 726 725 723 718 711 710 709 704 705 711 710 713 723 726 727 727 725 724 725 724 724 723 724 726 723 726 749 767 760 752 760 766 765 764 763 763 769 779 785 784 783 783 774 765 769 770 778 797 796 780 791 817 829 831 834 836 838 841 844 844 845 847 850 851 852 853 853 852
745 745 747 748 748 746 744 742 742 741 739 739 739 741 742 740 731 726 726 724 720 720 722 718 712 708 705 703 707 714 713 711 715 722 726 726 725 726 725 724 724 724 726 729 728 735 759 779 774 761 760 763 769 775 776 776 776 779 787 788 787 793 788 771 765 766 774 794 797 787 798 819 827 830 834 837 839 843 846 847 847 849 852 853 854 854 854 853
743 743 746 746 746 747 745 742 741 740 738 738 740 742 740 737 732 723 719 717 715 718 723 721 712 705 704 704 708 716 719 716 716 722 726 726 725 726 726 724 724 725 726 729 733 740 758 776 781 779 777 779 782 784 780 779 782 787 792 791 788 792 787 770 766 772 775 780 787 796 805 814 822 830 834 837 841 845 848 849 850 852 853 854 854 855 854 854
744 742 742 741 742 744 743 738 737 739 737 735 739 740 735 733 732 726 717 712 711 715 718 716 711 708 706 704 707 716 722 722 724 726 726 726 725 725 726 726 726 727 727 731 737 742 756 777 783 782 786 788 786 784 781 782 788 792 794 793 791 790 784 778 784 792 784 774 780 797 808 813 824 833 836 840 844 847 850 852 853 854 854 854 856 855 855 855
745 743 742 739 740 741 738 735 735 736 736 737 738 737 733 731 729 725 720 713 708 709 712 712 713 713 709 706 707 715 720 722 726 728 726 726 726 726 728 729 729 729 728 733 741 743 758 781 784 778 785 791 788 787 787 786 790 794 797 797 795 794 792 791 795 797 791 787 791 802 814 824 833 838 840 844 847 849 852 854 855 856 855 856 857 857 857 857
746 745 744 742 740 739 737 736 735 735 737 739 737 734 732 730 724 720 720 718 710 706 709 714 716 714 711 709 710 716 721 717 717 722 724 724 725 727 728 729 730 730 730 736 742 742 754 778 783 776 783 793 793 790 788 788 793 799 804 803 799 800 802 801 801 800 799 803 810 814 823 834 840 842 844 847 849 851 854 856 857 857 856 857 858 858 858 858
746 745 745 743 739 737 737 737 735 735 738 739 737 733 730 725 721 719 718 718 716 713 712 714 714 713 713 713 716 721 723 718 716 721 723 722 725 728 729 731 731 729 732 739 744 743 751 774 783 774 779 795 797 791 791 791 790 796 806 810 807 806 808 810 811 809 806 811 816 817 823 835 843 845 847 849 851 853 856 857 858 858 858 859 859 859 859 858
747 745 743 743 739 736 737 737 735 735 736 736 734 732 727 722 720 719 716 715 718 718 719 717 712 713 717 720 723 725 723 722 724 727 727 726 730 733 734 736 735 732 734 741 750 750 751 767 776 769 776 795 796 791 795 789 779 789 809 817 815 811 812 814 816 814 811 812 813 813 823 837 844 845 848 852 854 856 857 858 859 860 861 860 861 861 860 859
Wind_Speed
14 14 14 14 13 12 13 13 13 13 13 12 12 12 12 13 12 12 12 12 13 13 13 13 14 14 14 15 15 15 18 18 18 17 14 19 17 14 15 13 7 4 11 12 15 15 10 6 7 9 8 4 0 2 4 1 2 2 2 2 3 3 3 4 5 3 0 4 4 6 7 5 3 4 3 3 8 7 5 5 6 9 9 10 16 23 25 22
13 14 14 14 13 13 13 13 13 13 13 13 12 12 13 13 12 13 13 12 13 13 13 13 13 14 14 15 15 16 18 18 16 17 22 24 19 19 20 18 13 9 13 16 18 17 10 5 6 8 5 2 0 1 3 2 2 3 2 2 5 4 2 3 3 2 2 4 6 8 5 4 4 3 2 1 5 4 5 5 6 12 12 14 19 23 24 23
13 13 13 14 14 13 14 14 14 13 13 13 13 13 13 13 13 13 13 13 13 13 13 13 14 14 14 15 14 16 16 13 9 11 15 13 11 16 20 22 19 13 14 16 18 17 13 12 12 8 3 2 1 1 3 3 3 2 2 4 5 3 3 3 3 5 4 4 7 8 4 3 4 0 2 2 5 3 3 4 6 11 12 14 17 21 23 22
13 13 13 13 13 13 14 14 14 14 13 13 13 13 12 13 13 13 13 13 13 13 13 13 13 14 14 14 13 14 12 7 4 3 1 4 4 5 8 19 21 17 15 14 15 13 12 15 12 5 3 3 1 2 5 4 3 3 3 5 2 2 4 4 4 6 4 3 3 5 6 5 3 1 2 5 5 0 3 3 4 12 16 16 16 19 21 21
14 14 14 13 12 13 14 14 13 14 14 13 12 13 13 13 13 13 13 13 13 13 13 12 13 14 14 13 12 11 7 3 1 2 4 5 8 13 8 10 18 19 18 16 14 12 12 13 8 2 2 3 4 3 5 5 3 3 4 4 3 2 4 4 2 3 1 2 2 3 6 5 3 1 2 4 4 2 1 1 5 15 18 18 18 18 19 18
14 14 13 14 13 14 14 14 14 13 14 14 13 13 13 13 13 13 13 13 13 12 12 12 12 13 14 12 9 5 3 3 2 3 2 6 12 15 12 6 15 20 21 18 15 14 11 10 8 5 3 3 7 6 4 4 4 4 3 2 5 5 6 4 1 2 1 2 4 3 3 3 4 2 1 2 0 1 3 3 8 15 17 19 19 18 17 17
14 13 13 13 14 15 16 16 16 14 13 13 13 13 13 13 13 13 13 13 12 12 12 11 11 12 12 10 4 1 0 6 10 6 8 16 20 19 13 5 16 23 23 19 15 12 9 10 9 5 5 4 5 8 4 4 4 6 4 2 5 5 7 6 3 4 2 4 6 3 2 1 3 1 1 3 1 2 3 5 12 15 17 18 17 16 17 17
14 14 14 14 14 16 17 16 16 15 14 13 13 13 13 13 13 12 12 12 12 11 11 10 10 10 10 7 1 0 1 11 18 15 16 20 20 19 9 6 19 24 24 22 18 12 10 11 9 5 6 4 4 8 4 5 5 6 6 4 4 4 5 4 5 7 4 5 5 4 3 3 4 1 2 3 3 5 4 10 14 16 16 16 16 17 16 16
13 14 14 15 15 16 17 16 14 14 14 14 14 13 14 13 13 13 12 12 12 11 11 10 10 9 8 5 0 2 5 10 14 14 15 15 13 11 6 11 23 25 20 22 20 15 11 10 9 6 5 4 6 8 5 6 5 6 9 5 5 6 3 2 5 6 2 2 3 4 2 3 3 1 2 2 4 5 7 11 14 15 16 15 15 16 15 15
14 14 15 16 15 15 16 15 14 14 14 13 14 14 14 13 13 13 12 12 11 10 10 9 8 7 6 2 2 4 6 6 8 7 7 7 6 5 9 14 26 25 17 17 18 16 10 8 7 4 3 4 5 6 6 7 3 5 8 6 8 7 3 2 5 5 3 3 5 5 2 2 3 3 2 1 1 4 9 11 12 13 14 14 14 14 14 14
14 15 15 15 15 15 16 15 14 15 14 14 14 14 14 14 14 13 13 12 11 10 9 8 7 5 3 1 3 5 3 3 2 4 9 8 2 7 10 18 28 25 18 13 14 18 9 7 8 3 2 4 6 5 4 6 2 4 6 4 7 5 3 5 6 5 3 3 3 4 2 0 2 2 2 2 3 5 9 11 11 11 11 13 14 13 12 12
15 15 16 16 16 16 17 17 15 14 15 14 14 15 15 15 14 14 13 12 11 10 8 8 6 3 3 1 7 12 8 3 0 3 8 9 2 4 6 18 27 23 21 13 11 17 9 11 13 3 1 5 6 4 3 4 3 3 4 3 4 2 3 6 3 2 2 1 2 4 3 1 1 1 0 1 4 6 9 10 11 11 10 11 12 11 10 11
16 16 16 17 17 15 16 17 15 14 15 14 14 15 15 15 15 14 14 13 11 9 8 7 5 4 3 2 10 16 14 14 12 10 7 2 1 2 3 14 23 16 17 11 10 15 8 12 14 3 2 5 4 2 2 3 2 3 3 2 2 1 2 2 1 1 2 1 2 4 3 2 1 1 3 3 3 7 9 9 9 9 9 10 11 10 9 11
16 16 17 16 16 15 15 16 15 13 14 15 15 16 16 16 16 15 14 13 11 9 8 5 4 5 3 6 14 13 13 18 20 22 21 13 9 7 4 12 19 12 9 4 6 14 9 7 7 3 2 2 2 2 1 2 0 3 4 1 1 2 2 1 1 2 3 1 1 5 3 1 2 6 8 6 2 4 5 7 8 8 9 9 9 9 9 10
17 17 17 16 15 15 15 15 15 13 14 14 15 16 18 18 18 17 14 13 11 8 6 3 4 4 2 10 14 9 8 14 22 27 24 15 10 8 7 13 16 12 8 4 3 9 11 4 3 4 2 0 2 2 1 1 1 1 3 3 1 2 1 2 1 2 2 2 1 4 3 2 5 9 11 8 2 2 1 3 6 7 8 8 7 7 7 8
18 17 16 16 14 14 15 14 13 14 15 16 17 17 19 20 19 18 15 13 9 5 4 3 6 5 2 6 5 2 6 9 14 17 17 17 14 9 10 13 12 10 8 4 2 3 8 5 1 2 1 1 3 3 3 2 1 1 2 3 3 3 2 2 2 1 1 2 1 2 1 3 5 9 12 10 5 2 2 1 4 7 7 5 4 5 5 6
18 16 15 15 14 14 15 13 13 14 14 16 17 19 21 19 16 15 11 8 6 7 6 3 5 6 5 6 4 3 5 7 9 8 9 18 17 12 13 9 5 7 5 3 3 3 5 5 1 1 1 1 2 4 5 5 4 2 1 2 2 2 2 1 2 2 1 3 3 1 2 4 6 8 10 12 8 4 2 3 3 6 6 3 3 4 5 6
17 17 14 14 14 14 13 13 13 14 15 15 17 21 19 11 5 2 6 10 9 7 5 2 4 4 5 6 4 2 3 4 6 6 7 14 18 17 14 8 6 9 6 3 3 3 4 2 1 2 3 2 3 6 6 5 5 4 4 3 2 2 2 1 2 1 2 2 4 3 2 5 8 9 10 12 10 8 6 6 4 4 4 4 4 4 5 6
17 17 15 14 14 14 12 12 12 13 15 16 17 16 7 3 5 7 11 11 7 4 3 5 7 2 2 3 2 4 8 7 4 5 8 14 17 15 12 9 9 10 7 5 4 4 4 3 3 5 6 5 5 7 6 5 6 6 5 4 4 4 2 1 1 1 1 3 4 4 4 7 10 11 11 10 9 10 10 8 6 5 1 5 6 5 5 5
17 16 15 14 14 13 12 12 12 13 14 14 15 12 0 4 3 4 5 6 7 3 1 5 10 5 4 1 2 9 9 3 1 2 11 17 18 14 9 7 7 5 5 7 6 4 4 5 6 7 6 7 6 6 5 5 5 6 5 4 3 3 3 1 0 1 0 3 5 7 9 10 10 11 11 8 8 11 13 11 9 8 4 2 4 4 4 3
16 15 15 14 13 14 13 12 12 12 13 13 12 7 2 2 1 2 3 7 12 11 7 7 11 9 9 4 5 10 7 2 2 1 10 16 17 14 6 5 7 5 4 5 5 4 4 7 7 5 6 7 6 5 6 6 5 6 5 4 2 2 3 2 1 3 2 3 2 6 12 11 9 10 11 9 10 13 13 12 11 9 7 3 2 3 3 2
16 15 14 13 13 13 13 13 12 11 13 14 10 6 5 3 3 3 1 5 9 14 15 11 9 13 16 11 7 5 3 4 5 3 8 15 13 10 6 6 8 6 4 4 5 4 6 7 6 5 5 5 4 3 5 6 5 4 3 3 3 2 1 1 2 4 3 3 4 5 12 9 7 9 11 11 11 11 11 12 11 10 9 7 5 4 4 3
15 14 13 12 12 13 13 14 14 14 15 13 9 7 4 4 3 4 2 3 5 8 12 12 12 12 12 10 8 5 3 4 5 5 9 15 9 7 9 8 8 6 7 8 8 7 6 6 7 6 7 7 5 3 5 6 3 2 3 3 3 2 1 3 3 3 4 3 6 9 11 7 6 7 9 11 10 10 11 12 13 11 10 10 8 8 7 6
15 14 12 11 12 12 12 14 16 16 13 10 11 12 6 1 4 7 1 3 5 4 8 11 11 10 10 8 8 11 7 5 5 4 10 15 6 6 9 8 8 6 6 9 9 9 5 5 8 8 8 8 7 4 5 6 3 1 3 4 3 2 2 2 3 2 3 4 4 8 8 5 6 7 8 9 9 10 11 12 15 13 12 11 11 11 10 9
14 12 11 11 11 11 11 13 12 9 6 7 11 8 4 2 6 3 1 2 4 3 4 8 6 7 11 9 10 11 5 5 8 5 8 15 9 6 6 5 6 7 8 8 9 8 4 4 9 10 7 7 8 6 5 6 5 2 3 5 4 5 4 1 3 3 4 3 3 1 3 2 5 7 8 7 8 11 11 14 16 13 12 12 12 11 10 10
13 10 10 10 10 11 11 8 4 4 6 8 7 2 2 5 7 2 2 2 3 2 3 6 5 9 11 10 10 9 3 4 10 10 9 13 11 6 6 4 1 5 8 7 6 4 3 5 8 10 9 8 7 6 5 5 5 3 4 5 4 4 3 3 3 2 2 3 2 1 1 3 2 5 7 7 8 11 13 16 15 12 12 11 11 12 11 12
11 9 10 9 9 10 8 4 3 6 6 4 4 4 3 10 6 4 3 1 3 2 5 2 3 10 11 10 14 11 3 2 5 10 10 14 11 3 6 7 3 4 5 4 4 2 5 7 5 7 9 8 6 5 5 6 6 2 3 7 7 5 5 5 4 3 1 1 2 1 0 4 3 3 6 5 6 12 13 14 13 11 12 12 13 13 13 12
10 9 9 9 9 8 7 8 9 9 7 3 4 5 10 12 1 5 2 1 1 2 5 2 2 8 6 10 17 9 2 4 5 7 11 16 11 1 6 10 8 8 6 6 7 3 5 9 9 9 8 6 5 4 6 8 5 1 3 7 6 5 5 5 3 3 1 1 3 1 0 3 3 2 3 3 5 11 12 12 11 11 11 12 13 13 13 12
9 8 9 8 9 10 11 12 11 12 10 6 6 10 14 7 4 3 1 2 2 1 4 4 4 6 5 10 14 6 1 3 2 4 9 12 8 1 4 7 9 11 5 4 6 3 3 7 10 11 8 6 5 5 9 11 4 2 7 6 4 3 3 3 3 2 1 3 4 1 2 2 3 1 0 1 4 7 7 8 10 10 11 12 12 13 13 11
9 9 9 8 9 10 10 13 17 17 12 7 10 15 9 2 4 2 2 2 2 1 3 3 3 6 10 11 10 6 2 1 2 6 7 6 4 1 2 3 5 8 4 1 4 2 1 1 4 6 5 5 5 4 6 8 5 8 9 6 4 3 2 1 1 1 2 4 2 2 4 1 3 2 2 1 3 5 5 6 8 9 11 12 12 12 13 11
10 10 10 10 11 11 8 9 11 7 4 7 14 12 1 4 1 2 4 1 2 1 2 2 3 8 13 12 8 7 3 1 5 10 8 5 5 3 4 4 3 5 5 3 4 1 2 4 3 3 2 4 6 5 1 1 5 7 5 4 5 3 1 2 2 1 5 5 1 1 3 1 2 2 3 4 4 5 6 7 7 8 10 11 11 11 11 11
10 11 11 12 14 13 12 9 3 4 3 13 14 5 3 3 2 3 2 2 2 1 3 1 3 7 11 9 8 9 7 4 6 11 11 9 8 6 6 6 5 6 6 6 5 2 2 4 2 1 2 4 7 6 3 1 3 4 4 6 7 4 3 4 3 3 5 2 1 2 3 2 4 4 6 6 6 7 8 8 8 8 10 10 11 11 10 10
12 13 14 15 15 18 21 18 14 12 14 16 8 2 2 2 3 4 3 2 1 2 3 3 2 5 10 6 6 10 8 5 7 9 10 10 10 6 2 3 6 5 4 5 5 4 4 2 2 2 2 4 8 7 5 4 5 6 6 7 8 5 5 5 3 2 2 2 1 4 3 3 5 5 7 7 8 10 10 9 9 10 10 10 10 10 9 10
14 14 17 18 18 22 24 24 23 18 13 9 3 3 3 3 2 3 3 2 1 2 2 4 6 3 10 6 7 11 6 3 8 8 7 9 9 6 3 3 5 3 3 4 4 5 7 3 5 7 3 5 9 6 6 8 7 6 4 4 5 4 3 4 3 3 3 3 2 3 1 3 4 5 8 9 10 10 10 9 10 10 10 9 9 10 10 10
15 16 18 18 19 22 22 21 20 13 6 3 2 4 5 4 1 1 1 2 2 2 4 6 6 4 9 4 6 13 5 1 8 7 6 9 7 7 6 5 6 3 4 6 2 3 5 3 4 4 1 8 11 5 5 9 7 3 1 2 4 4 3 3 1 1 2 3 2 2 2 2 2 6 9 10 11 10 9 9 10 10 10 9 10 11 11 9
15 15 14 14 16 16 13 12 12 11 6 2 4 5 3 2 1 0 1 2 1 3 7 6 3 4 7 4 7 12 3 2 8 6 4 7 6 6 7 5 6 5 5 5 2 2 3 2 1 2 3 8 8 6 5 5 5 3 3 4 2 2 5 4 2 2 1 3 2 1 2 3 3 5 8 9 10 9 8 9 10 10 10 10 10 9 9 9
14 12 10 12 14 11 7 7 13 13 6 2 5 5 2 2 2 1 0 2 3 3 4 3 1 2 5 4 7 12 6 4 5 4 4 5 3 4 6 4 5 7 6 3 1 2 3 2 1 2 6 4 1 6 4 1 4 5 6 6 3 2 2 2 3 2 1 3 2 0 3 7 5 3 7 10 8 7 8 9 9 9 10 10 10 8 9 9
13 9 8 11 11 9 5 11 17 11 3 2 5 4 3 3 2 2 2 1 1 2 3 1 2 2 2 4 5 10 8 5 5 4 4 3 1 3 6 4 4 6 6 4 1 1 2 2 1 1 4 3 1 5 5 2 1 2 5 7 3 2 3 2 2 4 3 3 2 1 1 5 6 3 7 11 8 8 8 7 8 10 10 9 8 9 9 10
9 5 4 4 4 5 9 16 15 6 2 3 5 4 3 3 4 2 2 2 4 2 1 2 3 3 3 2 3 5 5 6 6 4 3 3 1 2 3 2 3 5 5 4 3 1 0 1 2 1 0 3 2 2 5 4 2 3 5 5 0 1 3 2 2 2 4 4 3 4 2 5 5 2 5 10 10 10 9 7 7 10 10 8 8 8 9 9
5 3 0 3 1 8 16 16 7 2 2 3 2 2 2 3 4 2 3 4 4 1 1 3 3 4 5 2 2 3 2 5 6 3 1 2 2 1 3 1 4 5 2 2 2 2 0 0 2 1 0 3 2 0 3 5 4 4 7 5 2 2 2 2 2 2 2 5 4 4 4 5 3 1 2 7 10 10 9 8 8 9 9 8 8 7 8 8
3 2 1 3 7 15 17 9 3 2 2 2 1 2 4 2 2 4 5 5 5 4 5 6 7 6 5 2 2 2 3 3 3 2 1 2 2 1 2 2 5 6 3 2 2 2 1 0 2 2 1 2 2 1 2 2 1 3 5 5 3 4 4 5 3 1 2 3 4 4 4 4 2 2 4 8 9 8 9 9 9 10 10 8 8 8 7 7
2 1 1 3 13 15 8 2 2 2 1 1 1 3 3 0 1 4 5 6 6 6 6 8 10 9 6 3 2 3 3 2 1 1 1 2 2 1 1 2 3 5 5 2 1 1 1 2 3 3 2 2 2 2 1 1 2 4 3 1 2 3 4 5 5 4 3 2 3 2 2 3 3 3 6 8 8 8 9 9 10 10 9 9 8 7 8 7
1 1 2 7 14 7 1 1 2 1 2 1 2 3 1 2 0 3 5 6 5 5 4 6 8 8 7 5 2 4 4 2 3 1 2 2 2 1 2 3 4 5 4 2 1 2 1 1 3 4 2 2 3 3 2 3 3 5 5 3 1 0 1 2 3 4 4 3 4 3 2 3 3 4 6 7 8 9 8 8 9 9 8 9 8 7 7 8
1 1 2 8 10 1 2 2 2 3 4 2 2 1 1 1 3 7 8 7 5 4 3 4 5 5 5 4 3 4 3 2 2 1 1 2 2 0 0 4 6 3 2 2 3 3 1 1 1 4 4 3 4 3 3 3 3 3 3 3 3 2 3 4 3 3 4 3 3 4 3 2 4 6 6 7 8 10 9 8 9 9 8 7 7 7 7 7
1 0 3 4 6 3 2 1 0 3 4 2 0 1 2 1 6 9 10 10 9 6 4 4 3 3 3 2 4 3 2 2 2 1 0 1 1 2 2 2 3 1 2 4 6 4 2 2 1 2 4 4 4 3 2 2 2 2 3 4 5 3 2 3 4 3 4 4 3 3 3 4 6 8 7 7 8 9 8 8 9 9 8 7 7 6 6 7
1 1 2 2 4 3 2 2 2 2 2 1 1 1 2 5 6 7 11 10 9 6 3 4 5 2 2 3 6 4 4 3 3 2 1 2 2 1 2 2 3 6 10 11 9 6 4 4 5 4 4 3 3 3 2 1 3 3 3 5 6 3 2 1 3 3 4 6 3 1 5 10 11 9 9 8 8 8 7 8 9 8 7 8 7 6 6 7
1 1 2 2 2 2 3 3 3 2 1 3 2 1 4 7 6 4 7 6 5 6 4 5 4 0 3 5 6 3 4 4 4 4 2 0 2 1 2 3 4 6 10 9 5 3 5 5 7 10 10 7 6 7 6 7 8 7 5 6 6 3 2 1 3 2 5 7 4 3 9 14 12 10 10 8 8 8 7 8 8 7 7 7 7 6 7 8
1 0 0 1 1 2 2 2 3 2 1 3 2 2 3 5 6 4 3 3 4 5 4 3 4 5 2 3 5 4 3 4 3 2 2 1 2 2 2 5 4 3 4 5 3 3 6 4 4 10 12 10 9 9 11 13 13 12 11 10 9 8 6 5 3 2 0 2 3 9 14 12 10 10 9 8 8 8 9 8 7 7 7 8 7 7 8 9
1 1 1 1 1 1 1 1 3 3 2 3 1 3 3 5 6 4 3 2 1 1 1 1 5 6 4 2 4 5 4 4 2 1 2 1 2 1 2 4 3 4 3 4 3 2 4 5 6 11 13 12 10 9 10 13 14 14 14 13 12 12 12 11 8 6 6 7 10 16 16 10 7 8 9 9 9 8 9 8 7 8 9 8 7 7 8 8
0 2 1 1 2 2 1 0 2 3 2 2 2 3 2 4 5 3 2 1 2 3 3 5 5 5 7 7 7 5 2 3 5 4 3 2 2 1 1 2 1 3 3 3 2 2 3 5 7 7 9 10 9 10 12 14 17 17 15 12 11 11 12 11 9 8 10 11 13 16 16 10 6 7 10 9 8 8 9 8 8 8 9 8 7 8 8 7
2 3 3 2 2 1 0 0 1 2 1 1 3 3 2 3 4 2 1 1 3 4 3 4 6 6 9 11 10 5 2 3 8 6 3 4 3 1 1 1 1 1 3 3 2 2 4 7 6 2 5 5 5 9 9 9 13 16 14 13 11 9 8 8 7 5 5 11 15 13 10 6 5 8 9 9 9 10 9 9 8 8 8 8 7 7 7 8
4 4 3 2 1 1 0 1 1 1 1 2 3 3 2 4 4 1 2 3 4 5 3 1 5 7 8 10 8 4 2 7 10 7 5 8 9 6 4 5 4 3 3 3 2 2 4 8 6 2 5 5 4 2 2 1 5 7 7 7 6 6 8 8 8 7 5 9 9 6 6 8 8 9 9 9 9 9 8 8 8 7 7 8 8 7 7 8
Wind_Direction
321 320 322 325 326 325 324 325 326 325 324 324 325 326 326 328 328 329 329 329 329 329 329 329 329 328 328 328 328 325 321 320 314 308 271 258 269 261 259 263 267 210 183 171 161 149 127 135 135 140 143 123 156 153 158 159 139 181 182 199 206 199 208 192 194 188 251 327 319 337 349 334 347 90 123 86 75 85 86 57 65 62 64 94 116 128 134 140
326 321 320 319 322 325 323 322 323 323 322 322 324 323 324 326 325 327 326 327 328 327 329 329 327 327 328 328 326 322 320 318 309 288 270 271 275 265 260 256 253 221 181 169 164 155 143 154 152 148 140 134 191 145 173 174 175 193 146 205 218 194 210 199 196 205 253 310 322 324 337 330 322 110 165 172 120 127 110 81 84 86 89 110 123 131 137 142
328 323 321 319 322 324 321 320 320 322 322 320 320 322 323 323 323 325 325 326 326 327 328 327 327 328 327 326 323 319 318 318 301 273 279 289 277 263 256 248 242 220 195 182 173 169 168 166 158 149 131 141 147 160 174 170 184 191 171 223 225 200 254 232 212 238 241 289 313 315 319 320 309 267 298 183 147 159 140 133 117 113 119 126 132 138 141 145
328 324 322 322 325 324 321 320 318 317 320 320 317 320 322 320 322 322 323 324 324 325 326 327 328 327 326 326 319 317 317 304 267 243 352 50 29 342 265 241 231 214 201 188 178 177 167 155 151 144 138 146 134 165 174 182 182 170 197 229 216 145 257 235 209 241 243 255 282 308 311 323 334 319 250 174 140 98 206 204 145 136 141 140 144 147 147 151
328 327 327 325 326 327 323 320 318 314 316 321 317 318 319 319 320 319 321 322 322 323 324 327 326 328 327 324 321 318 311 280 284 123 115 67 14 5 347 246 220 204 190 180 171 159 147 142 140 126 139 150 153 167 188 193 165 168 204 241 232 182 253 254 206 230 213 215 242 305 306 324 333 310 197 183 135 105 241 276 134 142 149 150 151 151 151 154
326 327 328 326 326 327 323 319 319 315 312 314 315 315 316 317 317 318 319 318 321 321 322 326 327 330 326 326 333 318 265 262 336 122 154 336 334 343 347 263 206 191 184 175 157 147 140 141 157 165 164 154 168 181 187 175 177 208 200 235 240 224 245 272 298 214 178 262 278 293 301 343 324 330 133 257 107 85 358 47 127 144 151 151 150 153 156 159
324 324 325 326 326 323 320 315 313 317 314 310 311 312 312 314 315 316 317 316 318 318 321 324 326 329 328 334 338 343 341 267 271 253 289 309 311 319 328 255 190 182 180 166 149 152 146 154 173 164 160 152 177 198 177 148 188 225 216 231 242 227 239 262 283 259 248 267 268 267 294 313 271 337 110 255 300 17 10 102 131 141 147 148 151 157 161 164
323 324 324 325 325 322 318 311 306 309 313 311 310 312 310 311 312 313 315 314 314 315 318 320 325 329 333 342 319 304 260 255 268 281 298 301 303 307 305 192 178 178 177 168 157 155 147 161 173 156 177 175 179 194 165 151 182 216 222 235 250 237 240 258 275 272 267 261 254 243 244 195 212 142 126 236 347 28 82 123 131 138 146 151 157 162 165 169
324 325 324 323 323 320 315 312 306 301 305 308 308 308 308 309 311 311 311 311 311 312 313 316 322 325 330 341 319 262 244 255 282 299 302 295 297 292 241 178 177 176 173 171 162 154 158 174 177 177 190 168 173 182 174 192 194 202 211 220 244 251 267 286 276 274 280 262 225 228 236 144 181 166 144 277 359 60 113 125 133 143 150 156 162 165 169 172
324 323 321 320 321 319 314 313 311 306 306 306 306 305 305 306 306 307 308 308 308 307 308 312 314 319 326 326 188 241 256 281 303 320 333 316 297 233 201 183 175 173 167 166 163 165 176 178 173 181 162 144 172 163 171 198 179 179 199 219 240 256 300 284 271 275 287 263 220 230 287 104 160 175 162 289 16 112 124 127 140 149 154 161 165 168 173 175
321 320 318 317 318 319 317 315 314 310 307 306 306 303 302 303 302 304 303 303 303 302 303 304 306 308 304 293 194 226 259 331 343 45 40 17 307 191 195 184 173 172 165 160 176 179 177 160 159 162 151 161 167 148 181 195 148 167 180 207 235 257 271 239 262 274 279 274 205 197 250 219 150 165 150 156 166 140 132 138 148 157 161 167 168 169 175 177
320 318 316 316 316 315 313 313 313 307 303 304 303 300 300 299 299 299 298 300 299 297 298 297 298 280 259 250 231 234 245 287 286 65 52 44 53 182 200 183 174 173 168 164 188 184 173 168 169 166 155 156 151 153 200 179 142 162 173 207 225 265 248 223 246 258 236 273 177 173 206 251 111 171 167 134 179 151 138 150 156 165 170 170 172 170 173 176
318 315 313 313 313 311 310 308 307 303 301 304 303 299 298 296 296 295 294 295 293 291 292 290 277 245 235 232 243 245 251 259 262 268 263 316 323 280 280 185 176 178 178 175 187 182 176 181 182 174 153 164 148 148 141 130 145 154 158 238 241 261 240 208 84 127 199 218 203 204 208 209 186 305 337 2 195 159 143 162 169 173 176 175 176 170 171 177
318 313 311 311 310 312 311 303 303 304 302 305 303 298 297 296 294 291 289 288 286 284 283 277 239 229 220 250 264 264 258 259 261 257 252 255 256 253 260 190 182 189 183 149 167 184 187 177 177 160 162 189 137 149 118 77 79 151 147 197 253 219 214 44 64 157 192 124 256 234 220 198 29 6 356 356 262 191 151 164 179 187 187 183 177 171 171 174
321 313 310 309 310 313 308 301 305 307 304 305 303 300 298 296 292 289 286 281 275 272 267 232 201 206 249 271 275 274 245 251 255 250 249 247 225 213 215 190 192 203 190 133 111 189 201 187 159 173 179 244 142 167 184 90 58 103 170 175 123 204 220 23 82 171 198 87 20 253 217 103 45 21 7 11 355 307 40 151 193 210 206 191 170 167 169 165
322 314 310 310 310 311 307 303 307 307 304 302 302 303 298 295 293 288 279 270 263 239 219 201 195 196 268 278 274 256 222 231 247 252 247 231 213 194 183 175 186 201 198 192 111 159 195 192 170 183 148 158 174 158 140 157 151 61 217 177 134 189 202 46 102 110 269 131 94 297 197 108 46 16 10 19 30 31 24 44 221 228 228 206 162 160 166 156
317 312 311 311 309 306 305 307 310 310 307 300 302 304 302 301 296 287 268 239 215 183 180 178 179 195 257 274 272 251 235 231 242 257 235 218 208 184 161 150 157 164 162 180 157 117 159 180 195 158 139 139 168 165 172 190 179 145 195 145 118 190 187 155 130 68 10 164 169 313 67 76 31 16 20 19 27 73 54 355 281 243 230 195 141 169 180 173
313 311 310 310 307 302 303 310 309 310 311 307 306 305 306 314 304 264 154 150 142 150 173 175 169 196 249 265 272 260 298 290 255 245 219 200 194 180 158 140 130 136 132 127 151 161 152 173 221 167 169 170 177 188 187 177 161 156 163 153 133 165 176 181 148 49 1 137 165 175 86 53 25 19 26 21 30 54 37 360 336 296 232 171 145 172 190 196
313 310 309 309 308 305 306 312 312 310 309 306 313 313 311 74 90 105 126 143 139 145 194 190 183 205 300 233 258 327 315 298 262 228 187 174 180 170 142 131 132 135 146 145 159 187 162 142 190 189 186 180 184 191 178 156 154 152 159 159 144 150 171 216 181 339 359 96 101 114 94 49 25 15 15 18 33 48 37 18 11 2 320 176 169 175 188 200
311 309 308 309 311 311 309 311 312 312 308 307 323 329 299 136 122 116 137 189 216 231 334 187 198 250 322 177 19 355 333 283 238 209 175 169 168 156 133 123 127 138 158 156 161 176 175 174 188 190 180 175 182 181 154 140 143 127 124 130 125 151 159 174 220 335 350 89 65 85 86 53 32 22 12 14 35 41 35 25 19 15 21 165 185 175 168 180
308 307 307 307 309 308 307 309 306 306 305 308 320 323 260 227 206 143 182 227 239 247 265 225 204 246 270 256 16 14 2 322 346 270 181 174 164 158 163 143 144 166 163 148 135 137 186 193 190 178 167 169 176 169 130 120 129 122 126 125 125 175 153 129 79 347 358 90 92 96 83 55 36 37 24 24 40 39 32 28 25 18 22 51 113 123 117 96
304 306 306 306 305 300 302 306 305 303 300 300 299 276 263 238 132 65 327 252 249 234 242 240 218 251 260 261 296 356 354 284 299 305 171 170 173 172 169 155 162 164 146 146 133 145 191 197 188 169 148 121 113 142 129 124 133 124 126 134 153 168 157 169 84 14 15 105 158 112 83 61 39 47 40 39 47 46 40 39 38 31 31 42 51 57 64 52
301 303 303 305 304 298 299 300 302 302 293 288 268 238 223 166 134 360 319 263 278 221 221 227 220 239 248 258 257 215 214 226 257 293 169 169 187 177 160 162 168 153 153 175 169 167 186 196 181 154 138 121 104 138 131 119 124 122 140 159 160 144 178 179 117 50 24 72 154 122 92 66 35 45 48 48 54 53 49 50 49 46 43 45 46 43 38 33
299 300 302 305 304 299 296 296 297 296 288 272 253 240 222 178 332 332 285 235 283 229 208 209 207 226 231 232 200 182 203 202 207 262 177 174 175 154 163 160 156 160 173 182 176 169 168 164 151 140 152 146 127 145 146 138 149 152 176 177 164 171 204 167 118 128 61 51 151 127 98 61 18 26 40 44 56 55 50 53 50 47 49 49 49 47 44 39
297 299 302 302 304 304 303 301 295 291 286 262 259 254 232 305 341 329 216 258 267 240 212 193 193 224 212 194 169 167 191 205 208 227 177 178 172 145 159 153 159 179 172 165 169 174 164 135 141 146 166 155 136 155 178 165 155 173 217 204 185 180 195 130 102 141 124 137 204 159 107 87 13 23 34 28 51 57 51 53 48 44 49 52 53 50 50 48
294 296 300 301 302 305 308 304 281 295 304 267 252 186 110 353 352 250 213 299 258 214 164 164 182 195 178 166 160 151 161 216 211 210 191 185 181 152 149 147 161 180 162 152 167 179 144 142 154 157 162 160 149 162 192 175 151 175 206 192 170 154 176 169 143 158 155 161 167 341 182 138 46 25 27 19 51 57 54 55 50 46 49 52 57 55 53 51
291 293 298 299 296 298 299 287 280 298 293 254 206 183 303 340 340 219 209 293 261 181 143 155 202 177 169 168 161 150 171 176 169 196 198 185 183 171 163 164 146 158 152 148 176 181 134 145 157 156 157 167 166 167 189 176 153 167 181 164 156 159 187 183 173 200 206 116 94 24 227 130 113 19 9 2 54 58 53 56 54 51 47 46 52 50 50 48
288 293 295 294 290 282 272 275 288 279 256 230 202 239 313 332 304 194 233 219 222 111 135 171 187 162 150 159 163 161 185 137 135 183 188 182 185 167 167 176 165 156 159 176 181 154 143 167 169 158 162 182 182 164 171 169 163 184 156 154 159 168 179 167 181 201 118 202 178 126 345 129 112 359 358 356 61 64 55 55 55 48 42 43 47 45 43 43
288 293 288 291 289 279 276 276 267 256 255 258 270 302 324 325 177 186 275 201 210 100 127 138 150 150 129 155 178 195 136 150 177 145 155 180 196 165 160 174 159 151 155 197 183 144 180 192 173 162 171 188 181 157 168 174 176 139 126 117 105 88 94 122 183 181 121 228 197 136 298 155 110 49 335 55 78 81 66 58 56 48 44 45 45 43 40 38
290 287 283 289 287 279 284 273 258 258 263 271 302 319 327 181 178 204 189 211 263 65 109 149 164 152 145 153 187 215 181 140 133 118 130 169 179 69 97 107 132 145 135 194 176 140 44 166 165 176 180 173 155 134 170 174 140 128 125 108 99 84 63 95 82 95 186 219 185 33 304 241 132 183 206 134 102 108 97 71 58 49 49 48 45 42 36 33
285 282 281 280 277 276 282 275 263 249 243 296 319 325 288 164 232 210 172 254 299 48 76 173 152 144 157 161 172 197 204 83 137 144 146 156 148 122 132 129 120 139 143 172 174 136 71 121 156 211 172 135 123 109 107 139 131 138 132 128 132 109 112 145 96 196 210 206 126 15 304 313 132 170 162 148 133 115 99 79 65 55 52 50 48 42 35 31
284 283 279 275 273 265 253 250 226 155 275 313 322 314 187 172 232 218 225 308 285 357 23 105 162 161 169 169 161 174 178 153 158 158 154 162 165 159 163 168 158 152 170 180 169 161 155 159 190 255 174 154 138 126 108 106 162 170 149 156 164 155 167 179 177 196 205 194 59 314 294 49 83 120 136 137 124 100 85 75 71 64 58 54 50 43 36 30
286 283 277 272 267 257 250 249 251 260 290 311 314 231 196 197 200 215 257 314 10 320 356 6 302 186 172 175 163 171 171 156 169 166 155 161 166 162 158 164 156 153 173 171 160 174 185 220 246 188 188 180 157 149 154 162 183 180 168 174 177 167 167 173 172 178 184 143 49 316 291 116 110 129 129 114 98 92 86 79 73 67 62 59 55 47 39 32
286 282 280 277 268 261 256 256 260 266 284 302 277 194 199 206 221 230 244 321 8 271 299 349 332 196 177 187 161 162 165 159 169 164 152 158 165 166 154 165 167 126 115 156 162 180 183 214 203 178 177 175 169 172 161 153 165 173 167 180 179 172 168 161 160 165 153 122 69 345 324 137 139 135 124 113 100 91 89 85 76 68 60 57 55 45 38 33
293 288 287 282 272 266 261 256 255 250 248 269 215 195 200 201 267 300 248 341 350 309 329 330 320 211 188 201 160 165 175 162 163 155 156 164 164 164 159 172 183 142 136 166 173 174 180 217 197 167 159 172 173 179 144 140 153 172 149 159 181 175 134 107 99 101 113 115 69 18 38 78 108 124 123 115 105 99 97 89 77 67 60 52 48 40 32 28
300 298 292 278 269 272 267 246 225 203 193 200 188 200 218 220 257 16 15 353 27 358 340 319 284 189 184 175 163 178 194 102 157 155 157 165 159 163 164 167 178 169 156 160 163 155 161 189 173 116 168 186 176 159 151 156 149 143 175 179 175 112 109 117 112 45 79 144 108 52 127 121 120 140 140 127 115 114 102 83 75 69 65 58 51 44 33 27
304 302 288 269 271 281 273 202 173 171 182 213 199 201 221 243 239 155 350 6 100 97 11 335 270 199 189 165 163 180 174 120 158 165 150 160 159 165 171 169 171 178 173 157 181 206 180 165 129 167 180 205 210 123 108 22 132 142 177 169 121 63 86 112 126 108 136 140 117 228 159 153 164 164 152 143 126 113 92 78 78 71 66 62 55 48 38 34
301 295 276 271 279 280 240 170 157 160 185 208 206 211 201 223 230 150 140 22 49 95 62 317 284 304 203 174 161 173 169 149 162 159 149 171 204 159 168 170 173 188 189 174 162 206 193 149 101 236 169 126 59 128 108 32 46 125 157 150 133 164 168 150 138 153 152 120 136 191 187 182 184 175 165 159 135 118 105 82 74 67 61 59 52 44 37 33
288 284 278 290 289 240 180 156 151 160 219 197 204 212 196 231 254 216 107 358 320 346 71 230 260 300 269 217 154 160 163 155 155 147 158 186 181 171 187 171 171 199 201 181 154 127 209 169 146 300 79 120 125 158 158 153 79 66 132 141 171 187 160 157 123 145 150 133 152 164 188 208 188 184 192 165 138 132 126 101 83 74 67 59 50 43 36 32
272 270 281 67 136 173 155 147 150 185 203 198 206 219 243 272 276 306 21 354 312 289 242 253 250 270 282 270 166 151 127 138 148 144 170 163 123 187 239 204 163 183 195 169 155 128 52 201 133 96 290 171 150 227 200 167 133 141 156 152 132 92 109 128 86 46 132 143 151 156 184 206 169 93 155 134 127 132 126 116 105 88 79 69 56 50 43 37
281 263 102 86 144 151 146 147 175 182 188 220 212 239 265 300 327 327 334 319 287 251 240 252 251 257 279 276 177 143 97 110 136 123 127 158 155 196 225 199 167 159 142 136 170 171 164 115 116 109 118 141 115 354 271 241 166 154 165 166 146 124 138 151 146 87 80 129 151 156 179 179 114 67 104 110 114 118 114 116 110 92 86 78 62 59 53 45
267 188 74 137 153 151 148 164 168 158 198 208 207 249 257 77 7 319 311 291 262 234 226 243 244 242 247 242 188 127 110 83 69 97 121 148 185 192 166 185 175 153 145 147 166 166 131 92 94 90 86 97 92 75 75 131 108 88 86 132 137 131 153 167 176 161 111 104 129 128 167 147 100 79 107 106 101 101 104 108 104 93 86 78 68 62 57 52
210 102 57 150 156 153 269 192 144 189 218 223 273 269 203 107 23 285 280 272 252 223 219 234 226 217 222 224 174 131 126 76 39 90 120 114 154 209 198 191 174 146 142 146 140 151 147 88 94 100 99 97 102 103 87 79 90 79 56 34 24 23 125 133 153 145 136 141 139 143 179 153 124 107 105 106 100 93 88 90 94 92 83 76 69 60 54 50
269 321 79 153 168 264 323 168 159 201 209 242 275 265 71 93 239 246 251 253 243 243 263 251 221 210 222 209 145 135 138 94 43 68 100 119 148 76 38 189 179 150 145 173 157 161 175 17 93 124 121 109 116 140 139 90 65 72 61 15 1 60 103 106 101 110 140 165 168 172 174 140 133 128 112 109 102 87 79 83 87 86 82 76 67 57 50 47
261 174 71 158 201 289 328 181 279 195 204 235 251 55 52 230 238 234 236 245 242 235 256 271 249 221 219 167 108 90 74 88 105 118 120 136 125 23 28 175 196 147 88 106 103 104 98 46 6 147 141 144 143 144 147 121 87 71 54 15 18 53 96 113 122 146 169 166 179 192 154 127 136 135 126 118 104 92 87 86 82 80 79 75 68 57 48 46
258 124 87 167 213 279 292 266 278 197 182 174 72 26 235 247 265 236 225 240 242 222 231 277 268 225 179 115 97 68 29 51 90 123 159 145 123 5 7 83 122 106 96 87 79 88 97 62 37 59 90 106 104 73 17 97 109 91 52 19 19 6 324 67 137 168 155 147 175 229 136 146 155 149 138 127 111 104 97 84 80 77 73 71 66 58 54 50
330 95 147 169 193 252 274 272 258 233 176 150 148 273 234 245 275 252 221 220 198 178 200 259 273 138 126 121 106 68 26 43 65 101 129 248 115 109 15 64 87 92 94 82 53 83 106 72 48 61 67 68 78 79 74 85 88 83 67 39 28 10 337 98 120 129 131 144 177 170 144 152 158 149 137 129 118 109 95 80 80 78 74 73 65 56 54 48
316 350 183 256 218 189 227 254 224 221 160 135 163 245 235 247 263 256 244 222 175 167 185 244 339 18 52 115 109 99 91 72 38 69 126 91 115 118 56 65 48 22 83 78 31 82 98 80 79 85 76 70 76 81 85 89 86 75 67 56 46 44 55 78 71 18 132 141 146 148 147 143 139 135 126 117 112 104 92 84 85 84 79 72 62 52 48 41
264 302 288 304 291 218 242 241 183 172 112 116 183 256 250 263 266 253 263 288 317 31 109 75 12 17 26 57 100 119 141 134 119 209 178 115 102 106 92 93 54 12 60 79 59 86 89 89 113 103 81 65 66 79 89 92 87 72 60 57 60 64 68 77 81 72 71 82 110 128 126 109 105 117 108 102 102 96 91 87 82 80 75 68 60 54 47 40
358 328 318 318 290 249 284 318 155 145 109 136 227 264 243 256 271 270 277 306 6 360 34 83 71 59 63 63 79 100 175 159 127 146 183 142 110 113 114 131 105 50 47 67 79 59 86 129 144 114 80 62 64 84 92 91 88 76 58 49 56 65 66 67 74 72 77 94 110 116 111 97 93 103 100 100 98 92 92 87 78 74 70 65 60 54 48 42
324 291 275 277 284 246 285 347 130 121 96 169 226 255 234 245 274 295 340 21 53 33 29 95 95 74 65 61 59 52 9 71 87 97 137 125 103 87 63 74 158 107 56 57 71 35 86 139 173 148 88 77 85 97 92 91 92 78 53 37 39 53 63 58 52 51 102 125 125 120 117 116 115 109 101 97 94 91 89 84 79 73 68 66 61 54 50 44
335 301 291 282 277 313 339 84 87 132 178 205 216 233 251 271 287 316 81 27 36 52 21 19 87 76 65 63 50 357 1 88 92 92 99 95 83 74 80 79 67 68 93 95 57 30 108 138 166 159 99 126 171 137 18 216 128 82 35 14 28 72 90 75 49 43 83 128 132 129 129 126 125 120 109 99 93 86 80 76 77 75 71 68 62 55 50 44